When you browse on this site, cookies collect data to enhance your experience and personalize the content and advertising you see.
Visit our Privacy Policy to learn more. By continuing to use the site, you agree to this use of cookies and data.
  • In Spain
  • List of Countries
  • For 7 days
  • Water Temperature
  • Satellite Maps
  • Weather Map
  • Weather Widgets
  • user-avatar
    Login

    Hourly Weather Florence

    Today, 21 June, Friday

    Time Temperature Precipitation Wind Pressure Humidity
    00:00 +22°C° 0 mm 1 mps 756 mmHg 78%
    01:00 +21°C° 0 mm 1 mps 756 mmHg 80%
    02:00 +21°C° 0 mm 1 mps 756 mmHg 80%
    03:00 +21°C° 0 mm 1 mps 756 mmHg 80%
    04:00 +19°C° 0 mm 0 mps 756 mmHg 80%
    05:00 +20°C° 0 mm 0 mps 756 mmHg 75%
    06:00 +23°C° 0 mm 1 mps 756 mmHg 71%
    07:00 +24°C° 0 mm 1 mps 756 mmHg 66%
    08:00 +26°C° 0 mm 1 mps 757 mmHg 57%
    09:00 +28°C° 0 mm 1 mps 757 mmHg 49%
    10:00 +31°C° 0 mm 1 mps 757 mmHg 40%
    11:00 +31°C° 0 mm 2 mps 757 mmHg 38%
    12:00 +32°C° 0 mm 2 mps 757 mmHg 36%
    13:00 +34°C° 0 mm 2 mps 757 mmHg 34%
    14:00 +34°C° 0 mm 3 mps 756 mmHg 35%
    15:00 +34°C° 0 mm 3 mps 756 mmHg 37%
    16:00 +34°C° 0 mm 3 mps 756 mmHg 39%
    17:00 +31°C° 0 mm 3 mps 756 mmHg 46%
    18:00 +30°C° 0 mm 2 mps 755 mmHg 53%
    19:00 +28°C° 0 mm 1 mps 755 mmHg 60%
    20:00 +27°C° 0 mm 1 mps 756 mmHg 63%
    21:00 +26°C° 0 mm 1 mps 756 mmHg 65%
    22:00 +25°C° 0 mm 1 mps 756 mmHg 68%
    23:00 +24°C° 0 mm 1 mps 756 mmHg 67%

    Tomorrow, 22 June, Saturday

    Time Temperature Precipitation Wind Pressure Humidity
    00:00 +22°C° 0 mm 0 mps 756 mmHg 66%
    01:00 +22°C° 0 mm 0 mps 756 mmHg 66%
    02:00 +21°C° 0 mm 0 mps 755 mmHg 66%
    03:00 +23°C° 0 mm 1 mps 755 mmHg 66%
    04:00 +22°C° 0 mm 1 mps 755 mmHg 65%
    05:00 +23°C° 0.4 mm 1 mps 755 mmHg 68%
    06:00 +24°C° 0.4 mm 1 mps 755 mmHg 70%
    07:00 +24°C° 0.4 mm 1 mps 755 mmHg 72%
    08:00 +26°C° 0.2 mm 1 mps 755 mmHg 63%
    09:00 +28°C° 0.2 mm 1 mps 755 mmHg 54%
    10:00 +30°C° 0.2 mm 1 mps 755 mmHg 45%
    11:00 +31°C° 0 mm 2 mps 755 mmHg 44%
    12:00 +32°C° 0 mm 2 mps 755 mmHg 44%
    13:00 +33°C° 0 mm 3 mps 755 mmHg 44%
    14:00 +33°C° 0.4 mm 3 mps 755 mmHg 48%
    15:00 +31°C° 0.4 mm 3 mps 754 mmHg 51%
    16:00 +31°C° 0.4 mm 2 mps 754 mmHg 55%
    17:00 +30°C° 0.3 mm 2 mps 754 mmHg 61%
    18:00 +28°C° 0.3 mm 2 mps 754 mmHg 68%
    19:00 +27°C° 0.3 mm 2 mps 754 mmHg 74%
    20:00 +26°C° 0 mm 2 mps 754 mmHg 78%
    21:00 +24°C° 0 mm 2 mps 754 mmHg 81%
    22:00 +23°C° 0 mm 1 mps 755 mmHg 85%
    23:00 +22°C° 0 mm 1 mps 755 mmHg 87%

    Day after tomorrow, 23 June, Sunday

    Time Temperature Precipitation Wind Pressure Humidity
    00:00 +22°C° 0 mm 1 mps 755 mmHg 88%
    01:00 +21°C° 0 mm 1 mps 755 mmHg 90%
    02:00 +21°C° 0 mm 1 mps 755 mmHg 90%
    03:00 +19°C° 0 mm 0 mps 755 mmHg 90%
    04:00 +19°C° 0 mm 0 mps 754 mmHg 91%
    05:00 +20°C° 0 mm 0 mps 755 mmHg 88%
    06:00 +21°C° 0 mm 0 mps 755 mmHg 86%
    07:00 +21°C° 0 mm 0 mps 755 mmHg 83%
    08:00 +25°C° 0 mm 1 mps 755 mmHg 77%
    09:00 +26°C° 0 mm 1 mps 756 mmHg 71%
    10:00 +27°C° 0 mm 1 mps 756 mmHg 64%
    11:00 +29°C° 0 mm 2 mps 756 mmHg 58%
    12:00 +30°C° 0 mm 2 mps 756 mmHg 52%
    13:00 +32°C° 0 mm 2 mps 756 mmHg 46%
    14:00 +33°C° 0 mm 3 mps 756 mmHg 46%
    15:00 +31°C° 0 mm 3 mps 756 mmHg 46%
    16:00 +31°C° 0 mm 3 mps 755 mmHg 46%
    17:00 +30°C° 0 mm 3 mps 756 mmHg 51%
    18:00 +29°C° 0 mm 2 mps 756 mmHg 57%
    19:00 +28°C° 0 mm 2 mps 756 mmHg 63%
    20:00 +26°C° 0 mm 1 mps 756 mmHg 68%
    21:00 +25°C° 0 mm 1 mps 756 mmHg 74%
    22:00 +21°C° 0 mm 0 mps 757 mmHg 79%
    23:00 +21°C° 0 mm 0 mps 757 mmHg 79%

    24 June, Monday

    Time Temperature Precipitation Wind Pressure Humidity
    00:00 +21°C° 0 mm 0 mps 757 mmHg 80%
    01:00 +20°C° 0 mm 0 mps 757 mmHg 80%
    02:00 +20°C° 0 mm 0 mps 757 mmHg 80%
    03:00 +22°C° 0 mm 1 mps 758 mmHg 80%
    04:00 +22°C° 0 mm 1 mps 758 mmHg 80%
    05:00 +24°C° 0 mm 1 mps 758 mmHg 75%
    06:00 +25°C° 0 mm 1 mps 758 mmHg 71%
    07:00 +26°C° 0 mm 1 mps 758 mmHg 67%
    08:00 +29°C° 0 mm 1 mps 759 mmHg 59%
    09:00 +31°C° 0 mm 1 mps 759 mmHg 51%
    10:00 +33°C° 0 mm 1 mps 759 mmHg 44%
    11:00 +35°C° 0 mm 2 mps 759 mmHg 41%
    12:00 +36°C° 0 mm 2 mps 759 mmHg 39%
    13:00 +36°C° 0 mm 3 mps 759 mmHg 36%
    14:00 +36°C° 0 mm 3 mps 759 mmHg 37%
    15:00 +36°C° 0 mm 3 mps 759 mmHg 38%
    16:00 +36°C° 0 mm 3 mps 759 mmHg 39%
    17:00 +35°C° 0 mm 3 mps 759 mmHg 45%
    18:00 +32°C° 0 mm 2 mps 759 mmHg 51%
    19:00 +31°C° 0 mm 2 mps 759 mmHg 57%
    20:00 +29°C° 0 mm 2 mps 759 mmHg 59%
    21:00 +28°C° 0 mm 2 mps 759 mmHg 62%
    22:00 +26°C° 0 mm 1 mps 760 mmHg 64%
    23:00 +26°C° 0 mm 1 mps 760 mmHg 64%

    25 June, Tuesday

    Time Temperature Precipitation Wind Pressure Humidity
    00:00 +25°C° 0 mm 1 mps 760 mmHg 64%
    01:00 +25°C° 0 mm 1 mps 760 mmHg 64%
    02:00 +25°C° 0 mm 1 mps 760 mmHg 64%
    03:00 +24°C° 0 mm 1 mps 760 mmHg 65%
    04:00 +24°C° 0 mm 1 mps 760 mmHg 66%
    05:00 +25°C° 0 mm 1 mps 760 mmHg 64%
    06:00 +27°C° 0 mm 1 mps 760 mmHg 62%
    07:00 +28°C° 0 mm 1 mps 760 mmHg 60%
    08:00 +30°C° 0 mm 2 mps 760 mmHg 54%
    09:00 +32°C° 0 mm 2 mps 761 mmHg 48%
    10:00 +35°C° 0 mm 2 mps 761 mmHg 42%
    11:00 +36°C° 0 mm 3 mps 761 mmHg 40%
    12:00 +37°C° 0 mm 3 mps 760 mmHg 38%
    13:00 +38°C° 0 mm 3 mps 760 mmHg 36%
    14:00 +37°C° 0 mm 3 mps 760 mmHg 37%
    15:00 +37°C° 0 mm 3 mps 760 mmHg 39%
    16:00 +37°C° 0 mm 4 mps 760 mmHg 40%
    17:00 +35°C° 0 mm 3 mps 760 mmHg 46%
    18:00 +34°C° 0 mm 3 mps 759 mmHg 52%
    19:00 +31°C° 0 mm 2 mps 759 mmHg 57%
    20:00 +30°C° 0 mm 2 mps 760 mmHg 61%
    21:00 +28°C° 0 mm 2 mps 760 mmHg 65%
    22:00 +27°C° 0 mm 2 mps 760 mmHg 69%
    23:00 +27°C° 0 mm 2 mps 760 mmHg 68%

    26 June, Wednesday

    Time Temperature Precipitation Wind Pressure Humidity
    00:00 +26°C° 0 mm 2 mps 760 mmHg 67%
    01:00 +26°C° 0 mm 1 mps 760 mmHg 65%
    02:00 +26°C° 0 mm 1 mps 760 mmHg 66%
    03:00 +25°C° 0 mm 1 mps 760 mmHg 66%
    04:00 +25°C° 0 mm 1 mps 759 mmHg 67%
    05:00 +26°C° 0 mm 1 mps 759 mmHg 65%
    06:00 +28°C° 0 mm 1 mps 759 mmHg 63%
    07:00 +29°C° 0 mm 1 mps 759 mmHg 62%
    08:00 +31°C° 0 mm 2 mps 759 mmHg 56%
    09:00 +34°C° 0 mm 2 mps 759 mmHg 50%
    10:00 +36°C° 0 mm 3 mps 759 mmHg 44%
    11:00 +36°C° 0 mm 3 mps 759 mmHg 41%
    12:00 +37°C° 0 mm 4 mps 759 mmHg 38%
    13:00 +38°C° 0 mm 4 mps 759 mmHg 36%
    14:00 +38°C° 0 mm 4 mps 759 mmHg 36%
    15:00 +38°C° 0 mm 4 mps 758 mmHg 36%
    16:00 +37°C° 0 mm 4 mps 758 mmHg 35%
    17:00 +36°C° 0 mm 4 mps 758 mmHg 41%
    18:00 +34°C° 0 mm 3 mps 757 mmHg 47%
    19:00 +33°C° 0 mm 3 mps 757 mmHg 52%
    20:00 +30°C° 0 mm 2 mps 757 mmHg 55%
    21:00 +29°C° 0 mm 2 mps 758 mmHg 58%
    22:00 +28°C° 0 mm 2 mps 758 mmHg 60%
    23:00 +27°C° 0 mm 2 mps 758 mmHg 60%
    Show more